Temp
17 15 15 18 19 20 18 18 17 18 19 18 18 18 19 20 19 18 18 19 17 17 20 21 21 19 18 18 17 17 16 16 16 15 15 14 14 13 14 14 14 14 14 14
17 16 18 19 19 18 18 17 17 17 18 18 17 18 19 20 20 20 20 17 17 17 18 18 20 19 18 18 18 16 16 15 15 14 13 14 13 12 13 12 12 12 13 13
18 18 19 18 18 17 17 17 17 17 18 18 17 17 18 20 19 19 17 16 16 14 14 16 17 18 18 18 17 16 15 15 14 13 12 13 12 12 10 10 11 11 11 11
17 19 18 17 18 18 17 17 18 18 17 16 20 17 20 22 21 19 15 13 12 12 12 13 15 17 18 18 17 15 14 13 12 12 12 12 11 9 9 10 9 10 10 10
17 17 17 18 18 18 18 18 17 18 17 17 17 16 18 20 19 19 15 13 11 11 11 11 14 15 15 15 14 12 12 11 10 10 11 10 9 9 9 8 9 9 9 9
15 18 17 18 19 18 19 19 18 17 17 15 17 17 21 19 19 16 15 13 12 11 11 12 11 11 10 10 10 10 9 8 9 9 10 10 10 9 8 8 9 8 9 9
16 17 17 19 18 18 18 16 15 15 16 17 18 17 21 17 16 16 14 13 11 11 10 11 11 11 10 10 10 9 9 8 9 9 9 9 9 9 10 10 9 8 8 7
14 15 17 17 18 17 15 16 14 17 15 15 17 17 18 15 14 14 14 12 12 11 11 11 11 11 11 10 10 10 10 11 11 11 11 10 10 9 9 9 9 9 9 8
14 15 17 18 19 18 18 17 18 16 15 15 15 16 16 15 14 14 13 12 12 11 11 11 11 11 11 11 12 13 13 13 13 12 12 11 10 9 9 9 8 9 8 7
16 15 17 18 17 18 18 18 17 16 16 16 16 14 15 13 14 14 13 12 12 12 12 11 11 12 12 12 12 13 14 14 13 12 11 10 9 8 8 8 7 7 7 6
16 15 16 18 17 15 16 17 15 16 15 16 16 14 15 14 14 13 12 13 13 12 11 11 11 12 12 12 12 11 11 12 11 11 10 9 8 8 7 7 7 7 6 5
15 15 15 16 17 17 17 16 16 15 15 13 13 14 13 13 13 13 14 14 14 12 11 11 10 11 11 11 11 11 12 12 12 11 10 9 8 8 7 7 6 6 5 5
12 13 14 14 16 16 16 14 15 14 13 13 14 13 14 13 13 14 14 14 14 13 13 12 10 9 9 10 10 11 11 10 10 9 8 8 7 7 7 6 6 6 6 5
12 11 12 14 12 12 13 13 13 15 13 12 13 13 13 13 14 14 13 14 13 13 13 13 11 9 9 9 10 9 9 10 9 9 9 8 7 7 6 6 5 5 5 5
10 10 10 11 12 12 11 12 12 12 13 14 12 13 12 12 13 13 13 12 12 12 12 11 11 9 8 9 9 9 9 8 9 8 7 7 7 7 7 6 6 5 5 4
9 9 9 10 11 10 10 10 10 10 11 12 12 13 14 15 15 14 14 13 13 12 11 11 11 10 8 9 9 9 9 8 8 8 7 7 6 6 6 6 5 4 3 2
9 9 9 11 10 10 10 10 11 12 13 13 11 12 14 12 13 14 14 13 13 12 11 11 10 9 10 9 10 9 9 8 7 7 6 5 5 5 4 3 3 2 2 1
8 9 9 10 10 10 13 12 12 12 12 13 14 15 15 14 13 14 13 12 11 11 11 10 9 9 11 11 10 9 9 8 7 6 5 5 4 4 3 3 2 2 1 1
6 7 10 10 10 12 12 12 12 11 12 10 12 13 14 12 12 12 11 11 11 10 8 9 11 11 11 10 10 9 7 7 6 5 4 3 3 2 2 2 1 1 0 -1
8 7 7 9 10 10 11 9 9 13 10 8 8 7 7 10 8 11 11 9 8 8 7 5 10 9 8 8 8 7 5 5 4 4 4 3 3 4 3 3 2 1 -0 -0
7 7 7 8 9 10 7 8 8 10 8 7 7 6 6 6 7 6 6 7 7 6 5 4 5 7 7 7 7 5 4 4 6 4 2 1 1 2 3 1 1 0 -1 -2
7 7 7 7 8 8 7 8 7 6 6 6 6 6 6 5 5 4 4 4 5 4 3 4 3 2 3 5 6 2 2 3 3 2 1 1 1 0 1 1 -0 -1 -2 -3
5 6 6 6 6 7 7 8 7 6 6 6 6 6 6 5 4 3 4 3 3 3 3 4 4 2 2 3 4 2 3 3 2 2 2 1 1 0 0 -0 -1 -2 -3 -4
6 7 6 6 7 7 7 8 7 7 7 7 7 6 6 4 3 4 3 2 3 2 2 2 3 2 2 2 2 2 2 2 2 1 1 1 0 -0 -1 -1 -1 -3 -4 -5
4 4 5 5 6 6 7 7 7 8 7 5 5 6 5 5 5 4 4 3 3 3 3 2 2 2 1 1 1 1 1 1 0 -0 -0 -0 -0 -1 -2 -2 -2 -3 -3 -3
5 4 3 4 6 5 6 7 7 7 6 6 6 6 6 6 5 5 5 3 3 3 3 2 2 2 1 1 0 1 1 1 0 -0 -1 -1 -1 -2 -2 -3 -3 -3 -3 -3
Height
767 777 773 755 755 753 767 773 775 770 758 763 759 750 743 732 731 730 724 722 721 718 714 716 720 723 729 732 736 738 741 746 754 758 762 770 775 781 785 789 793 796 799 802
769 761 755 754 758 764 766 770 770 763 756 762 759 745 734 728 723 719 719 721 719 718 717 712 714 716 718 725 731 735 736 740 749 754 758 763 772 781 786 791 793 796 799 801
754 747 743 751 758 766 765 768 768 766 759 757 757 743 732 717 715 716 718 720 719 719 718 713 709 706 711 715 722 729 733 739 746 752 756 762 770 780 785 790 792 796 799 801
752 740 747 751 751 757 760 756 757 763 769 777 749 756 722 712 711 714 720 720 720 720 717 713 707 705 706 713 720 723 727 736 743 749 755 757 761 771 778 786 791 795 800 801
743 742 742 743 742 746 751 747 756 760 766 764 761 769 727 713 716 714 721 722 722 722 717 710 706 709 713 715 720 726 731 736 741 748 752 756 762 769 776 782 790 794 798 800
743 732 735 735 734 738 739 746 752 757 763 769 754 757 707 717 711 718 719 721 724 723 720 715 713 715 721 723 729 734 739 743 748 754 757 760 763 769 774 781 781 793 795 798
742 735 732 728 738 738 742 757 776 775 770 754 732 745 708 717 716 715 720 723 723 721 719 719 718 721 724 729 735 740 745 751 755 762 765 766 765 772 775 774 780 784 792 799
750 743 725 721 726 740 748 750 768 761 765 757 740 736 716 717 718 720 723 725 725 723 720 720 721 725 729 733 737 741 744 751 759 763 766 774 770 773 770 782 786 777 784 793
743 736 712 712 711 724 733 741 737 754 755 761 746 729 721 723 725 726 728 727 731 728 728 725 722 721 728 733 732 737 742 745 752 757 761 768 765 770 774 771 789 778 780 789
724 736 714 706 711 715 719 722 744 746 752 746 733 738 728 730 729 729 731 730 730 730 730 730 730 729 729 731 733 736 735 736 744 754 759 766 766 775 771 782 788 780 785 785
719 730 721 708 715 722 726 724 732 733 740 734 733 732 716 718 721 727 732 730 731 731 728 730 731 730 732 734 736 738 740 737 743 749 755 763 764 766 775 784 778 776 786 789
719 724 724 715 706 707 706 710 717 730 730 737 738 729 716 716 719 724 726 727 728 730 728 730 731 729 731 732 735 738 738 740 742 749 750 754 766 765 770 786 779 774 781 790
732 723 729 723 712 709 708 714 711 719 729 728 732 728 716 716 719 719 722 724 720 722 721 724 727 729 730 731 733 735 737 738 740 747 749 753 763 765 766 782 776 772 778 789
728 731 727 712 722 718 720 715 713 710 724 726 720 723 720 718 714 716 715 714 718 717 716 720 722 727 726 730 734 736 738 738 740 744 748 753 759 763 772 775 772 775 781 787
737 735 729 724 723 722 728 718 714 717 716 709 717 716 711 714 714 714 712 711 712 713 712 715 717 719 721 726 730 734 737 740 741 743 747 753 759 763 766 768 771 776 781 786
734 729 734 723 722 730 728 730 724 721 719 716 716 708 702 699 701 704 700 703 705 707 706 707 709 713 715 718 722 727 732 738 742 743 745 750 756 760 764 767 771 775 779 785
732 728 726 716 720 724 720 715 715 706 703 704 716 701 696 699 697 697 689 694 697 700 698 698 703 706 708 710 711 717 723 730 737 743 745 749 754 757 761 764 769 773 777 783
730 724 720 715 718 711 687 689 687 698 695 691 692 686 684 687 690 685 684 689 689 689 690 687 690 697 702 704 706 712 718 726 732 739 740 746 749 755 760 763 768 772 776 779
737 730 706 705 705 686 683 681 689 692 690 701 694 683 682 687 689 681 685 688 680 682 683 677 680 688 696 699 700 707 714 721 729 733 737 742 747 752 759 763 767 771 774 777
723 728 724 704 696 696 680 688 689 679 696 705 705 710 700 690 704 677 684 686 675 675 676 672 678 683 689 694 699 704 711 717 722 726 730 736 740 745 751 757 760 765 771 774
723 720 718 709 700 687 700 695 686 689 708 710 709 708 704 706 702 695 691 681 675 675 676 671 676 679 684 691 697 703 708 711 717 722 729 734 739 742 747 753 759 762 767 771
721 716 711 708 705 698 697 695 704 712 713 713 706 705 704 704 699 692 689 681 675 675 673 670 675 681 682 686 694 702 707 710 715 722 728 733 737 739 744 749 755 760 765 769
734 720 723 718 708 698 699 697 696 700 701 702 701 699 697 693 692 687 684 682 678 675 671 673 672 681 686 689 694 698 707 711 715 722 726 731 736 738 743 747 751 757 762 765
718 713 716 713 701 701 698 697 698 696 696 694 694 693 690 688 686 681 679 677 676 674 675 675 673 681 686 690 694 700 706 708 716 721 724 729 734 736 740 747 750 753 758 762
723 717 711 711 703 701 695 691 688 688 687 688 687 686 684 683 679 677 674 672 671 669 673 678 674 675 683 690 695 699 703 707 713 719 722 726 731 735 737 743 746 750 753 756
700 711 719 709 694 697 688 683 685 685 682 679 678 675 674 676 673 673 671 669 668 668 667 672 675 674 681 687 691 697 702 706 709 716 719 722 727 733 735 739 744 748 752 755
Wind_Speed
5 4 13 27 22 14 4 4 5 3 8 5 10 14 13 15 9 13 8 6 7 10 5 17 22 26 29 31 32 37 39 42 43 42 38 32 30 24 21 20 19 20 19 18
3 17 8 5 10 12 13 11 10 5 10 5 9 15 15 15 13 6 1 2 3 4 4 9 21 29 32 33 32 34 40 43 43 40 35 32 29 21 18 15 16 16 17 16
15 5 14 12 9 12 13 14 5 9 5 6 8 9 7 7 5 6 1 1 2 7 6 8 9 27 29 34 35 33 34 43 42 37 35 28 26 19 15 14 14 14 14 14
13 11 7 7 8 11 17 9 11 6 2 4 3 8 4 4 8 2 6 9 9 8 8 8 10 16 27 24 26 31 36 35 34 38 33 35 28 19 18 19 16 16 13 13
8 5 12 15 10 12 7 7 8 7 5 3 6 5 5 1 7 4 4 6 8 8 8 8 2 8 9 13 18 21 26 26 27 27 31 30 24 19 20 20 17 15 14 13
6 4 6 5 9 12 4 2 1 0 2 7 9 8 12 7 5 5 2 3 4 4 8 12 19 24 24 26 24 21 20 19 19 20 23 24 21 19 23 22 19 15 15 14
5 16 3 3 3 2 5 6 2 2 4 9 11 10 16 1 2 4 5 3 2 4 7 10 13 14 22 26 27 25 23 19 16 11 10 11 14 14 19 20 21 19 16 15
7 6 18 12 15 7 7 7 5 6 4 3 2 7 5 3 4 4 2 4 3 4 7 10 12 16 20 23 26 26 24 21 11 7 3 8 9 16 13 19 22 21 20 16
6 7 3 5 19 15 11 12 11 5 1 2 5 4 2 2 2 2 3 3 1 2 3 6 11 23 24 27 32 31 26 22 17 12 11 13 15 17 20 21 26 22 18 18
4 5 6 3 5 9 18 7 3 4 7 8 4 5 6 4 6 4 3 4 3 2 4 4 5 11 15 23 28 29 28 25 20 19 18 25 22 24 20 25 25 17 19 18
4 4 6 2 5 9 4 15 2 2 4 6 3 6 3 12 10 9 6 5 5 5 5 6 5 9 10 12 18 22 22 21 19 21 22 23 21 21 24 26 19 15 16 16
6 5 11 15 3 2 2 11 15 6 8 3 1 6 4 7 8 7 6 5 3 7 7 7 6 9 10 16 20 19 19 20 22 24 22 21 21 22 23 24 20 19 20 17
5 4 6 6 3 2 5 4 5 3 3 7 4 4 1 7 8 7 8 10 9 8 9 8 6 5 12 17 20 22 23 23 22 21 21 20 21 22 22 24 20 19 21 20
3 3 4 11 1 1 3 4 5 8 6 4 6 4 5 6 10 12 14 13 11 9 4 5 6 7 14 17 21 21 22 23 23 23 22 23 24 23 24 22 20 20 19 19
1 4 2 1 7 6 5 4 2 2 3 10 7 9 9 10 12 12 14 12 11 9 7 8 7 7 12 16 19 20 22 23 26 26 25 24 22 21 20 19 20 20 20 19
7 3 2 4 7 7 5 9 13 13 10 8 6 15 6 14 14 12 15 16 15 12 9 9 8 7 9 19 24 25 25 25 25 24 24 24 23 24 24 24 24 25 23 22
7 6 5 4 5 7 6 16 18 11 15 12 12 17 9 9 12 15 20 13 15 12 12 10 10 9 16 23 29 30 30 27 27 27 25 26 26 26 26 26 24 22 23 21
6 7 4 3 3 9 6 11 19 19 18 17 18 19 18 9 12 14 14 8 11 12 9 9 7 11 22 26 27 28 29 28 28 27 26 27 27 25 24 23 22 22 21 19
12 6 3 5 10 8 7 5 7 11 10 4 11 21 20 6 4 14 5 10 12 9 10 9 15 15 21 26 29 29 27 28 28 28 28 27 26 23 22 22 23 22 20 20
12 12 7 2 4 5 1 4 6 2 5 7 7 10 11 4 4 10 3 9 11 11 9 11 16 13 18 23 27 28 28 29 30 30 29 27 27 27 27 26 25 23 21 21
3 4 14 10 8 3 2 8 6 9 1 7 5 5 7 4 4 13 14 12 6 5 7 8 14 20 21 22 26 25 26 28 28 25 25 25 26 26 25 24 23 23 23 22
3 3 1 5 6 7 3 4 2 2 3 5 4 4 5 7 8 8 11 12 9 7 7 14 14 14 21 26 27 20 19 21 18 19 19 22 23 24 25 24 23 23 23 23
3 4 2 4 4 2 2 4 4 7 7 7 5 7 7 8 4 7 9 9 9 7 9 13 16 16 15 17 20 19 17 16 16 17 19 20 20 21 22 24 24 24 24 24
4 3 5 7 4 3 4 1 5 8 10 9 7 7 7 9 6 7 7 7 6 5 7 13 16 15 13 16 15 15 19 19 18 19 18 19 20 20 20 22 23 24 23 21
7 1 9 13 17 14 16 15 15 11 11 9 9 9 8 9 12 7 7 6 6 7 12 15 15 15 16 17 15 16 22 23 21 19 19 18 18 21 21 22 23 24 24 27
13 12 8 13 21 15 19 21 15 15 14 13 10 12 11 9 11 9 9 5 6 6 12 13 14 16 20 19 19 20 22 23 23 20 20 20 20 20 21 20 17 17 19 20
Wind_Direction
200 175 202 203 204 234 154 215 235 247 278 297 266 270 271 278 289 279 304 291 259 227 250 219 208 195 198 199 193 193 186 194 192 187 182 183 185 186 187 191 195 197 202 205
156 234 217 220 223 233 242 261 264 268 250 231 266 275 267 265 265 240 216 342 319 281 262 228 201 197 199 199 200 194 191 188 191 187 184 181 180 180 182 184 187 194 199 198
219 189 189 187 202 216 232 235 237 257 317 282 271 279 244 258 209 158 40 250 290 314 302 271 219 200 199 198 194 195 187 190 190 186 181 171 169 169 176 183 183 187 191 191
249 218 174 194 212 194 248 194 241 259 289 243 29 294 202 231 256 146 5 1 344 344 314 263 247 218 208 204 196 188 183 176 183 190 180 173 165 162 189 184 187 185 185 185
221 177 207 223 208 192 236 173 199 223 232 275 177 267 279 333 239 186 1 355 349 349 5 5 340 78 89 144 151 160 159 164 168 173 178 168 162 167 168 173 176 176 181 186
265 287 172 220 218 201 144 152 222 23 173 259 193 193 262 226 222 130 127 20 350 22 57 67 73 76 71 79 91 101 102 111 138 156 170 175 165 161 163 170 166 180 182 184
282 247 268 186 126 97 132 112 259 282 195 245 188 206 253 265 181 153 178 156 133 104 91 87 87 90 95 99 104 103 104 102 129 138 155 174 176 190 186 179 186 180 186 191
181 291 199 181 200 177 188 166 169 227 217 276 290 233 250 115 114 96 117 142 169 146 131 121 118 113 113 111 114 116 113 109 112 129 182 254 216 200 197 211 204 188 194 197
187 269 242 206 211 184 211 223 206 285 249 321 243 310 315 96 68 85 118 88 356 351 31 120 129 131 133 142 141 134 132 138 153 161 195 225 220 224 219 209 216 198 190 189
228 287 223 266 110 222 213 154 142 182 224 234 247 263 239 172 189 177 142 129 109 72 95 116 138 151 145 151 152 151 151 156 172 189 206 220 215 224 218 217 216 198 190 183
169 158 267 129 198 173 144 218 241 160 201 223 240 251 230 186 177 174 168 152 152 170 174 192 179 158 151 153 164 171 172 167 179 194 207 216 217 217 218 217 211 197 195 185
212 193 246 234 210 228 217 211 194 198 206 216 174 266 316 160 159 142 167 202 188 208 209 212 204 179 169 174 182 187 188 189 194 201 206 208 215 212 210 220 210 190 183 181
328 192 247 301 322 348 204 193 182 123 98 191 183 251 125 137 140 156 143 217 215 207 192 206 191 195 191 200 200 202 203 203 204 206 201 199 205 200 199 208 195 180 176 179
33 267 222 240 262 102 208 205 184 193 198 163 220 188 216 197 174 179 200 223 220 226 201 193 168 192 191 204 211 210 209 209 202 195 192 191 193 191 190 185 174 172 178 182
101 245 286 266 326 348 346 304 253 244 271 209 202 196 206 202 198 202 214 223 224 227 210 213 210 204 190 194 201 204 207 199 192 186 184 184 181 180 179 175 175 179 186 189
171 210 217 260 242 241 247 259 280 285 273 258 235 259 187 220 211 214 227 221 227 223 217 215 209 212 191 196 197 197 196 194 192 189 185 179 177 175 175 177 182 184 186 187
186 182 169 229 219 265 244 216 221 231 227 239 236 248 241 217 191 209 237 223 228 222 215 207 196 197 204 203 199 198 200 195 194 194 185 181 180 179 182 183 184 184 185 188
292 205 190 229 157 235 235 191 206 218 236 230 238 257 253 225 210 220 227 205 222 230 225 219 208 200 218 215 204 202 200 197 196 195 188 187 185 185 188 188 189 190 193 197
219 273 248 201 218 263 279 247 184 186 249 39 266 254 259 184 196 254 163 228 231 218 232 225 235 232 223 211 201 194 189 195 196 195 193 191 189 189 192 193 195 198 200 200
213 224 250 269 251 235 228 342 346 191 210 21 18 9 10 178 200 261 305 257 241 230 225 203 223 213 197 192 191 184 184 191 196 200 201 199 198 199 201 203 201 204 208 205
192 209 229 241 255 250 326 305 320 188 360 349 8 350 0 3 276 297 307 289 287 263 211 180 181 177 183 178 180 179 184 193 203 201 204 204 205 204 205 203 205 205 203 201
303 308 261 219 230 245 299 48 58 352 237 270 262 252 265 249 277 285 297 296 272 226 177 162 146 150 160 171 177 171 186 198 197 198 202 206 206 206 204 202 202 202 200 196
255 212 245 221 278 202 232 221 188 166 215 228 233 252 256 275 267 296 295 294 276 235 176 172 145 140 155 163 178 159 184 180 179 186 195 202 207 205 205 197 190 187 195 188
251 244 251 296 264 323 90 213 228 217 233 249 250 278 291 274 270 288 299 297 259 200 188 172 154 163 155 165 162 167 169 170 178 183 186 192 197 195 198 202 201 190 185 181
231 15 274 286 282 280 270 267 269 261 249 239 252 267 263 272 284 270 289 288 252 208 189 193 175 161 163 165 166 166 171 171 173 179 182 187 193 193 188 200 200 200 209 208
255 254 243 256 268 264 272 273 275 275 264 269 272 279 270 254 268 274 280 249 227 215 182 185 180 160 165 166 167 173 178 179 173 175 177 180 182 188 188 189 196 212 225 214